• en Suisse
  • Liste des pays
  • À 7 jours
  • Température de l'eau
  • Carte satellitaire
  • Carte météo
  • Widgets météo
  • user-avatar
    Se connecter

    Météo par heure à Lugi

    Ce jour, 20 Octobre, Samedi

    Heure Température Précipitation Vent Pression Humidité
    00:00 +5°C° 0 mm 2 m/s 760 mmHg 92%
    01:00 +5°C° 0 mm 2 m/s 760 mmHg 93%
    02:00 +5°C° 0 mm 2 m/s 761 mmHg 94%
    03:00 +5°C° 0 mm 2 m/s 761 mmHg 95%
    04:00 +4°C° 0 mm 2 m/s 760 mmHg 95%
    05:00 +4°C° 0 mm 2 m/s 760 mmHg 96%
    06:00 +4°C° 0 mm 2 m/s 761 mmHg 95%
    07:00 +4°C° 0 mm 2 m/s 761 mmHg 95%
    08:00 +4°C° 0 mm 2 m/s 761 mmHg 95%
    09:00 +6°C° 0 mm 2 m/s 761 mmHg 89%
    10:00 +7°C° 0 mm 2 m/s 761 mmHg 83%
    11:00 +9°C° 0 mm 2 m/s 761 mmHg 77%
    12:00 +9°C° 0 mm 2 m/s 761 mmHg 73%
    13:00 +10°C° 0 mm 2 m/s 761 mmHg 70%
    14:00 +10°C° 0 mm 2 m/s 761 mmHg 67%
    15:00 +10°C° 0 mm 1 m/s 761 mmHg 72%
    16:00 +9°C° 0 mm 1 m/s 761 mmHg 77%
    17:00 +8°C° 0 mm 1 m/s 761 mmHg 82%
    18:00 +7°C° 0 mm 1 m/s 761 mmHg 84%
    19:00 +7°C° 0 mm 1 m/s 761 mmHg 86%
    20:00 +5°C° 0 mm 0 m/s 762 mmHg 88%
    21:00 +5°C° 0 mm 0 m/s 762 mmHg 89%
    22:00 +5°C° 0 mm 0 m/s 762 mmHg 90%
    23:00 +5°C° 0 mm 0 m/s 762 mmHg 91%

    Demain, 21 Octobre, Dimanche

    Heure Température Précipitation Vent Pression Humidité
    00:00 +5°C° 0 mm 1 m/s 762 mmHg 92%
    01:00 +5°C° 0 mm 1 m/s 762 mmHg 92%
    02:00 +5°C° 0 mm 1 m/s 763 mmHg 93%
    03:00 +5°C° 0 mm 1 m/s 763 mmHg 93%
    04:00 +5°C° 0 mm 1 m/s 763 mmHg 93%
    05:00 +4°C° 0 mm 1 m/s 763 mmHg 94%
    06:00 +4°C° 0 mm 1 m/s 763 mmHg 94%
    07:00 +5°C° 0 mm 1 m/s 763 mmHg 94%
    08:00 +5°C° 0 mm 1 m/s 764 mmHg 94%
    09:00 +6°C° 0 mm 1 m/s 764 mmHg 87%
    10:00 +8°C° 0 mm 1 m/s 764 mmHg 80%
    11:00 +9°C° 0 mm 1 m/s 764 mmHg 74%
    12:00 +10°C° 0 mm 1 m/s 764 mmHg 71%
    13:00 +10°C° 0 mm 1 m/s 764 mmHg 68%
    14:00 +11°C° 0 mm 1 m/s 764 mmHg 66%
    15:00 +10°C° 0 mm 1 m/s 764 mmHg 71%
    16:00 +7°C° 0 mm 2 m/s 764 mmHg 76%
    17:00 +6°C° 0 mm 2 m/s 763 mmHg 82%
    18:00 +6°C° 0 mm 2 m/s 763 mmHg 84%
    19:00 +5°C° 0 mm 2 m/s 763 mmHg 86%
    20:00 +5°C° 0 mm 2 m/s 763 mmHg 88%
    21:00 +5°C° 0 mm 2 m/s 763 mmHg 89%
    22:00 +3°C° 0 mm 3 m/s 763 mmHg 89%
    23:00 +3°C° 0 mm 3 m/s 763 mmHg 90%

    Après-demain, 22 Octobre, Lundi

    Heure Température Précipitation Vent Pression Humidité
    00:00 +3°C° 0 mm 3 m/s 762 mmHg 90%
    01:00 +3°C° 0 mm 4 m/s 762 mmHg 90%
    02:00 +3°C° 0 mm 4 m/s 762 mmHg 90%
    03:00 +3°C° 0 mm 4 m/s 761 mmHg 90%
    04:00 +3°C° 0 mm 4 m/s 761 mmHg 91%
    05:00 +3°C° 0 mm 5 m/s 760 mmHg 91%
    06:00 +3°C° 0 mm 5 m/s 760 mmHg 91%
    07:00 +3°C° 0 mm 5 m/s 760 mmHg 90%
    08:00 +3°C° 0 mm 5 m/s 759 mmHg 89%
    09:00 +4°C° 0 mm 6 m/s 759 mmHg 85%
    10:00 +7°C° 0 mm 6 m/s 758 mmHg 80%
    11:00 +8°C° 0 mm 6 m/s 758 mmHg 75%
    12:00 +8°C° 0 mm 6 m/s 757 mmHg 74%
    13:00 +9°C° 0 mm 6 m/s 757 mmHg 73%
    14:00 +9°C° 0 mm 6 m/s 756 mmHg 71%
    15:00 +9°C° 0.2 mm 6 m/s 756 mmHg 75%
    16:00 +9°C° 0.2 mm 5 m/s 755 mmHg 78%
    17:00 +8°C° 0.2 mm 5 m/s 755 mmHg 81%
    18:00 +8°C° 0.3 mm 5 m/s 755 mmHg 84%
    19:00 +8°C° 0.3 mm 4 m/s 755 mmHg 86%
    20:00 +8°C° 0.3 mm 4 m/s 755 mmHg 89%
    21:00 +7°C° 0.2 mm 4 m/s 755 mmHg 90%
    22:00 +8°C° 0.2 mm 3 m/s 755 mmHg 91%
    23:00 +7°C° 0.2 mm 3 m/s 755 mmHg 92%

    23 Octobre, Mardi

    Heure Température Précipitation Vent Pression Humidité
    00:00 +7°C° 0 mm 3 m/s 755 mmHg 92%
    01:00 +5°C° 0 mm 3 m/s 755 mmHg 92%
    02:00 +4°C° 0 mm 3 m/s 755 mmHg 92%
    03:00 +5°C° 0 mm 2 m/s 755 mmHg 92%
    04:00 +5°C° 0 mm 2 m/s 754 mmHg 91%
    05:00 +4°C° 0 mm 2 m/s 754 mmHg 91%
    06:00 +4°C° 0 mm 2 m/s 754 mmHg 90%
    07:00 +4°C° 0 mm 2 m/s 754 mmHg 89%
    08:00 +4°C° 0 mm 2 m/s 754 mmHg 88%
    09:00 +4°C° 0 mm 3 m/s 753 mmHg 81%
    10:00 +5°C° 0 mm 3 m/s 753 mmHg 74%
    11:00 +7°C° 0 mm 4 m/s 752 mmHg 68%
    12:00 +7°C° 0 mm 4 m/s 751 mmHg 66%
    13:00 +7°C° 0 mm 4 m/s 751 mmHg 65%
    14:00 +7°C° 0 mm 4 m/s 750 mmHg 63%
    15:00 +6°C° 0 mm 4 m/s 748 mmHg 67%
    16:00 +6°C° 0 mm 5 m/s 747 mmHg 71%
    17:00 +5°C° 0 mm 5 m/s 746 mmHg 75%
    18:00 +5°C° 0 mm 5 m/s 745 mmHg 75%
    19:00 +4°C° 0 mm 6 m/s 743 mmHg 76%
    20:00 +4°C° 0 mm 6 m/s 742 mmHg 77%
    21:00 +4°C° 0.2 mm 7 m/s 740 mmHg 77%
    22:00 +4°C° 0.2 mm 7 m/s 739 mmHg 77%
    23:00 +4°C° 0.2 mm 8 m/s 737 mmHg 77%

    24 Octobre, Mercredi

    Heure Température Précipitation Vent Pression Humidité
    00:00 +4°C° 0.8 mm 7 m/s 735 mmHg 78%
    01:00 +3°C° 0.8 mm 7 m/s 734 mmHg 79%
    02:00 +3°C° 0.8 mm 7 m/s 732 mmHg 80%
    03:00 +3°C° 1.2 mm 6 m/s 731 mmHg 82%
    04:00 +3°C° 1.2 mm 6 m/s 730 mmHg 84%
    05:00 +3°C° 1.2 mm 5 m/s 729 mmHg 86%
    06:00 +4°C° 0.5 mm 4 m/s 729 mmHg 88%
    07:00 +4°C° 0.5 mm 4 m/s 728 mmHg 89%
    08:00 +4°C° 0.5 mm 3 m/s 728 mmHg 90%
    09:00 +4°C° 0.4 mm 4 m/s 728 mmHg 89%
    10:00 +3°C° 0.4 mm 5 m/s 728 mmHg 88%
    11:00 +3°C° 0.4 mm 5 m/s 729 mmHg 86%
    12:00 +3°C° 0.4 mm 6 m/s 729 mmHg 85%
    13:00 +3°C° 0.4 mm 7 m/s 729 mmHg 84%
    14:00 +3°C° 0.4 mm 7 m/s 730 mmHg 83%
    15:00 +3°C° 0.5 mm 7 m/s 730 mmHg 83%
    16:00 +3°C° 0.5 mm 7 m/s 731 mmHg 83%
    17:00 +2°C° 0.5 mm 8 m/s 731 mmHg 84%
    18:00 +2°C° 0.5 mm 8 m/s 732 mmHg 83%
    19:00 +2°C° 0.5 mm 8 m/s 733 mmHg 82%
    20:00 +2°C° 0.5 mm 8 m/s 733 mmHg 81%
    21:00 +2°C° 0.1 mm 8 m/s 734 mmHg 79%
    22:00 +1°C° 0.1 mm 8 m/s 735 mmHg 77%
    23:00 +1°C° 0.1 mm 8 m/s 735 mmHg 75%

    25 Octobre, Jeudi

    Heure Température Précipitation Vent Pression Humidité
    00:00 +1°C° 0 mm 8 m/s 736 mmHg 76%
    01:00 +2°C° 0 mm 7 m/s 736 mmHg 76%
    02:00 +2°C° 0 mm 7 m/s 737 mmHg 76%
    03:00 +2°C° 0 mm 7 m/s 737 mmHg 77%
    04:00 +2°C° 0 mm 6 m/s 737 mmHg 78%
    05:00 +1°C° 0 mm 6 m/s 737 mmHg 79%
    06:00 +1°C° 0 mm 6 m/s 737 mmHg 80%
    07:00 +1°C° 0 mm 6 m/s 737 mmHg 81%
    08:00 +1°C° 0 mm 5 m/s 737 mmHg 82%
    09:00 +2°C° 0 mm 5 m/s 737 mmHg 79%
    10:00 +3°C° 0 mm 5 m/s 737 mmHg 75%
    11:00 +5°C° 0 mm 5 m/s 737 mmHg 72%
    12:00 +5°C° 0.1 mm 5 m/s 737 mmHg 71%
    13:00 +5°C° 0.1 mm 5 m/s 736 mmHg 70%
    14:00 +5°C° 0.1 mm 5 m/s 736 mmHg 68%
    15:00 +4°C° 0.1 mm 4 m/s 736 mmHg 72%
    16:00 +3°C° 0.1 mm 3 m/s 736 mmHg 76%
    17:00 +3°C° 0.1 mm 3 m/s 735 mmHg 80%
    18:00 +3°C° 0 mm 2 m/s 735 mmHg 82%
    19:00 +3°C° 0 mm 2 m/s 735 mmHg 84%
    20:00 +3°C° 0 mm 2 m/s 734 mmHg 85%
    21:00 +2°C° 0.1 mm 2 m/s 734 mmHg 86%
    22:00 +2°C° 0.1 mm 2 m/s 734 mmHg 87%
    23:00 +3°C° 0.1 mm 1 m/s 734 mmHg 88%
    Voir plus